Temperature
13 13 13 13 13 13 13 14 14 14 14 14 14 14 14 14 15 15 15 15 16 16 16 16 16 16 16 16 16 16 16 16 16 16 16 16 16 16
13 12 13 13 13 13 13 13 14 14 14 14 14 14 14 14 14 14 15 15 15 15 15 16 16 16 16 16 16 16 16 16 16 16 16 16 16 16
13 13 12 12 13 13 13 13 13 13 14 14 13 13 13 13 14 14 14 14 14 15 15 15 15 15 15 16 16 16 16 16 16 16 16 16 16 16
13 13 13 13 12 13 13 13 13 13 13 13 13 13 13 13 13 14 14 14 14 15 15 15 15 15 15 15 15 15 15 15 15 15 15 15 15 15
13 13 13 13 12 13 13 13 13 13 13 13 13 13 13 13 13 13 13 14 14 14 14 15 15 15 15 15 15 15 15 15 15 15 15 15 15 15
13 13 13 13 13 12 12 12 13 13 13 13 13 13 13 13 13 13 13 13 13 13 14 14 14 14 14 15 14 14 15 15 15 15 15 15 15 15
13 13 13 13 13 13 13 12 12 13 13 13 13 13 12 12 12 12 13 13 13 13 13 13 13 13 13 14 14 14 14 14 14 14 14 14 14 14
13 13 13 13 13 13 13 13 13 12 13 13 13 13 12 12 12 12 12 13 13 12 13 13 13 13 13 13 13 14 14 14 14 14 14 14 14 14
14 13 13 13 13 13 13 13 13 13 13 12 13 13 12 12 12 12 12 12 12 12 12 12 12 12 12 13 13 13 13 13 13 13 13 13 13 13
13 13 13 13 13 13 13 12 12 13 13 12 12 12 12 12 12 12 12 12 12 12 12 12 12 12 12 12 12 13 13 13 13 13 13 13 13 13
13 13 13 13 13 13 13 12 12 12 13 13 12 12 12 12 12 12 12 12 12 12 12 12 12 12 12 11 12 12 12 12 12 12 12 12 13 13
14 14 14 13 13 13 13 13 12 12 12 12 12 12 12 12 12 11 11 11 12 11 11 11 11 11 11 11 11 11 11 11 12 12 12 12 12 12
14 14 13 14 14 13 13 13 13 12 12 12 12 12 12 11 11 11 11 11 11 11 11 11 11 11 11 11 11 10 10 11 11 11 11 11 11 11
13 14 14 14 14 13 13 13 13 12 12 12 12 12 11 11 11 11 11 11 11 11 11 11 10 10 10 11 10 10 10 10 10 10 10 10 11 11
13 13 13 13 13 13 13 13 12 12 12 12 12 11 11 11 11 11 11 11 11 11 11 10 10 10 10 10 10 10 10 9 10 10 10 10 10 10
13 13 13 13 13 12 12 12 12 12 11 11 11 11 11 11 11 11 10 10 10 10 10 10 10 10 10 9 9 9 9 9 9 9 9 9 9 9
12 12 12 12 12 12 11 11 11 11 11 11 11 11 11 10 10 10 10 10 10 9 9 10 9 9 9 9 9 9 8 8 8 8 8 8 8 8
11 11 11 12 12 12 11 11 11 11 11 11 11 10 10 10 10 10 10 9 9 9 9 9 9 9 9 8 9 8 8 8 7 8 8 7 8 7
11 11 11 11 12 11 11 11 11 11 11 10 10 10 10 10 10 9 9 9 9 9 8 8 8 8 8 8 8 8 8 7 7 7 7 7 7 7
10 11 11 11 11 11 11 11 11 10 10 10 10 10 10 10 9 9 9 9 8 8 8 8 8 8 8 8 7 7 7 7 6 6 6 6 6 7
10 10 11 11 11 11 11 11 11 10 10 10 10 10 9 9 9 9 9 8 8 8 7 7 7 8 7 7 7 6 6 7 7 6 6 5 5 5
9 10 10 11 11 11 11 11 10 10 10 10 9 9 9 9 9 8 8 8 8 7 7 7 7 7 7 6 6 6 5 5 6 6 6 6 5 4
9 9 10 10 10 10 10 10 10 10 10 10 9 9 9 9 8 8 8 8 7 7 7 6 6 6 6 5 5 5 4 4 4 4 4 5 5 5
Wind_Speed
3 2 2 2 2 2 2 2 2 2 2 2 2 1 1 1 1 2 3 6 5 4 4 5 6 6 6 7 7 8 8 9 10 11 12 12 12 12
2 3 3 2 2 2 2 2 3 3 2 2 1 1 1 1 1 1 2 6 5 4 4 5 5 6 6 6 7 8 7 8 9 10 10 11 12 12
3 3 3 2 2 2 2 2 3 3 3 2 2 2 2 1 1 2 2 3 4 5 4 4 5 5 6 6 6 7 7 7 8 8 9 10 11 12
4 3 3 2 3 3 2 3 3 3 3 3 2 2 2 1 1 2 2 2 2 5 5 5 4 5 5 6 6 6 7 7 7 8 8 9 9 10
4 4 4 3 4 3 3 3 3 2 3 3 2 2 2 2 2 2 2 1 1 4 5 6 5 4 5 5 5 5 6 6 7 7 7 7 7 8
6 5 5 5 5 4 4 3 3 3 3 3 3 3 2 2 2 2 2 2 1 1 2 3 5 5 5 5 5 4 5 5 6 6 7 7 7 7
7 7 6 5 4 4 4 3 4 4 3 3 3 3 3 3 3 2 2 1 1 1 1 2 3 3 4 6 5 3 4 4 4 5 6 6 6 6
9 8 7 8 8 8 6 5 5 5 4 4 4 4 4 3 2 3 3 3 2 1 2 1 2 2 2 2 4 4 3 3 3 3 4 5 5 6
10 9 7 7 8 8 9 10 8 7 6 6 5 5 4 4 4 4 4 3 2 1 1 2 2 2 2 4 6 5 4 3 2 1 1 3 4 5
12 11 10 10 10 9 9 9 8 8 8 7 6 4 3 3 4 4 3 3 2 2 2 2 2 2 2 4 7 6 5 4 3 2 0 2 3 5
13 13 12 12 9 10 10 10 9 7 5 4 1 0 2 1 2 4 5 5 4 3 2 2 2 1 2 3 6 7 5 4 2 1 1 2 3 5
12 13 13 13 10 13 13 11 11 9 8 7 6 6 6 5 5 6 5 5 4 3 3 2 2 1 2 2 2 3 3 4 3 2 1 1 2 4
12 12 11 14 13 14 14 12 10 8 8 8 7 6 6 5 6 5 5 4 4 3 3 3 2 2 2 2 2 2 1 1 1 1 2 2 1 2
13 12 11 14 16 15 14 10 8 8 8 8 7 7 7 6 5 5 4 3 2 2 2 2 2 2 3 3 2 2 1 1 1 2 2 1 2 2
13 11 9 12 14 13 14 12 11 10 10 9 9 8 7 7 6 5 5 4 4 3 2 2 2 3 3 3 2 2 2 1 1 2 2 2 2 2
14 11 10 11 12 10 11 12 11 11 11 10 9 8 7 7 7 6 6 5 5 4 3 2 2 3 3 3 3 3 2 2 1 2 3 3 3 3
11 11 11 11 12 12 12 11 11 11 11 10 9 9 8 8 7 7 6 6 6 5 4 3 2 2 1 2 3 3 3 2 2 2 3 3 3 3
12 12 13 13 14 14 13 13 13 12 12 11 11 10 10 10 9 7 7 7 6 5 5 4 4 4 3 2 1 3 3 2 2 2 4 4 4 3
14 14 14 14 14 14 14 14 13 13 12 12 12 11 10 10 9 9 8 7 7 6 5 4 4 5 5 5 3 1 2 2 3 3 3 4 5 4
15 15 15 15 14 14 14 14 13 13 13 13 12 12 11 11 10 10 9 9 8 7 6 5 4 4 4 3 2 2 1 2 3 4 4 4 5 4
14 15 15 14 14 14 14 14 14 13 14 13 13 13 12 12 11 10 10 10 9 8 8 6 4 2 2 2 3 3 3 2 2 4 5 5 5 5
13 14 14 14 14 13 13 13 14 14 15 14 13 13 12 12 12 12 11 10 9 8 7 6 6 5 5 5 5 4 3 2 4 6 6 6 5 4
13 13 13 13 14 13 13 15 16 14 14 14 13 13 13 12 11 11 11 10 9 9 8 7 6 5 5 4 4 4 4 4 3 4 4 7 9 10
Wind_Direction
319 314 316 329 313 306 282 267 262 230 200 178 185 139 123 107 128 185 157 135 153 163 174 181 184 186 195 207 217 222 219 213 213 214 213 217 225 229
301 303 303 294 308 296 282 271 267 264 233 195 193 173 165 186 169 216 147 146 157 162 173 185 190 195 198 204 212 218 216 212 213 216 221 223 226 229
276 281 278 287 283 279 275 270 260 254 234 208 183 183 194 199 187 216 190 195 165 160 177 182 189 196 200 203 209 210 209 213 217 220 225 228 230 231
275 272 267 246 259 270 265 256 250 249 236 213 191 189 206 202 209 225 219 208 186 148 171 179 185 195 200 206 207 208 208 212 219 223 227 231 236 238
262 262 261 251 247 244 251 254 249 245 241 229 208 192 211 201 202 209 210 210 214 151 165 175 176 183 192 189 192 203 209 211 216 223 229 234 239 242
249 248 249 246 248 245 239 241 243 238 229 226 211 202 206 208 217 212 200 186 194 161 144 162 165 178 181 178 180 192 205 210 218 223 225 229 238 246
246 242 237 241 271 268 260 245 232 230 220 221 217 215 209 208 214 213 216 216 199 204 201 184 179 185 175 169 166 173 190 198 209 219 225 229 235 243
246 243 232 219 220 223 244 263 271 250 235 225 223 221 215 208 206 221 218 221 213 188 230 212 197 194 172 142 110 130 151 166 182 203 224 234 238 241
246 241 236 228 221 227 214 216 228 244 262 256 237 229 220 207 211 219 226 240 240 203 233 214 188 179 138 103 108 116 119 123 129 156 235 248 248 247
242 242 237 233 224 226 225 222 223 218 223 235 238 232 226 211 224 235 231 230 230 202 221 219 197 185 148 127 119 116 116 109 96 84 345 271 264 259
239 238 238 236 204 204 227 227 223 216 200 211 297 36 70 94 243 217 208 216 217 195 203 225 205 211 194 162 134 134 124 117 103 62 12 335 297 271
237 236 228 235 205 193 220 225 225 219 207 195 199 200 203 193 215 229 224 227 223 202 179 214 204 213 210 176 164 166 157 142 141 131 79 14 332 292
237 233 227 202 210 203 220 228 224 220 212 209 204 202 205 205 202 210 218 231 228 214 169 199 217 227 228 202 199 202 228 263 203 161 136 109 9 306
242 237 227 189 200 205 214 218 196 202 215 209 208 207 204 202 199 191 185 191 209 195 168 204 223 230 235 233 214 194 226 316 322 324 336 149 186 183
244 243 226 186 194 207 211 199 194 208 212 213 212 209 205 197 185 174 171 165 157 146 168 207 226 233 244 247 242 239 251 289 321 317 321 324 318 308
240 230 210 196 206 215 197 198 209 212 212 213 210 201 191 186 185 182 181 179 180 168 153 170 214 226 234 241 249 254 256 258 295 320 323 321 323 325
228 224 218 210 208 210 210 205 205 206 207 210 204 196 191 188 187 188 191 193 200 193 178 170 169 161 176 248 232 235 236 243 272 306 307 302 303 309
223 223 219 215 211 208 208 206 205 205 204 203 202 197 193 190 185 184 188 195 199 195 187 179 181 183 189 167 349 241 238 252 273 286 284 286 288 302
224 225 221 218 214 210 208 207 205 204 201 199 199 197 194 190 186 185 188 192 193 191 186 187 200 213 223 218 163 310 265 263 278 281 286 290 291 302
226 226 222 219 215 211 208 205 203 200 199 198 197 195 193 190 189 188 190 191 188 186 185 189 201 218 237 250 195 174 221 268 276 285 291 293 287 271
227 226 223 219 214 211 207 203 199 197 196 195 194 192 191 191 190 190 188 179 187 189 192 188 166 172 196 195 204 201 178 163 282 287 296 289 286 280
235 228 223 218 213 208 203 200 198 195 194 194 192 190 189 190 189 188 186 184 189 191 187 169 161 182 201 216 224 221 218 209 194 205 244 269 287 293
241 235 226 217 212 207 201 199 197 195 193 192 190 189 188 187 186 185 185 185 184 182 177 174 176 188 200 210 222 230 239 252 264 259 246 208 224 252
Height
1510 1508 1507 1506 1506 1505 1505 1506 1507 1507 1507 1508 1508 1508 1508 1509 1510 1511 1513 1513 1515 1517 1518 1520 1522 1524 1525 1527 1529 1531 1532 1534 1535 1537 1539 1540 1542 1543
1508 1507 1506 1506 1505 1505 1505 1505 1505 1506 1506 1506 1507 1507 1507 1508 1508 1510 1511 1511 1513 1514 1516 1517 1519 1521 1522 1524 1525 1527 1529 1530 1532 1533 1535 1537 1538 1539
1509 1507 1506 1505 1505 1504 1504 1504 1504 1505 1505 1505 1505 1506 1506 1507 1507 1508 1509 1510 1511 1512 1513 1515 1516 1517 1519 1520 1522 1523 1525 1527 1528 1530 1531 1532 1534 1535
1507 1507 1506 1504 1504 1504 1503 1503 1503 1503 1504 1504 1504 1504 1505 1505 1505 1506 1507 1508 1509 1509 1510 1511 1513 1514 1515 1517 1518 1520 1521 1523 1524 1525 1527 1528 1529 1530
1506 1505 1504 1504 1503 1502 1502 1502 1502 1502 1502 1502 1503 1503 1503 1503 1503 1504 1505 1506 1507 1507 1508 1509 1510 1511 1512 1513 1515 1516 1517 1519 1520 1521 1522 1523 1524 1525
1504 1503 1502 1502 1501 1501 1500 1500 1500 1500 1500 1501 1501 1501 1501 1501 1502 1503 1504 1504 1505 1505 1506 1506 1507 1508 1509 1510 1511 1512 1513 1515 1516 1517 1518 1519 1520 1520
1501 1501 1500 1499 1498 1498 1499 1498 1498 1499 1499 1499 1499 1500 1500 1500 1501 1501 1502 1502 1503 1503 1504 1504 1505 1506 1507 1507 1508 1508 1509 1510 1512 1513 1514 1514 1515 1515
1498 1498 1497 1496 1496 1495 1495 1496 1496 1497 1497 1497 1497 1498 1498 1498 1499 1499 1500 1500 1501 1502 1502 1502 1503 1504 1504 1505 1504 1505 1506 1507 1507 1508 1509 1510 1510 1511
1495 1494 1494 1493 1493 1493 1493 1493 1493 1493 1494 1495 1495 1496 1496 1496 1496 1497 1498 1498 1499 1499 1499 1500 1501 1501 1501 1501 1501 1502 1502 1503 1503 1504 1505 1505 1506 1506
1489 1489 1489 1489 1489 1490 1490 1490 1491 1491 1491 1492 1493 1493 1493 1493 1493 1495 1495 1496 1496 1496 1497 1498 1498 1499 1499 1498 1498 1499 1499 1499 1500 1500 1501 1501 1501 1502
1483 1483 1484 1484 1484 1485 1486 1487 1487 1488 1488 1488 1489 1489 1489 1490 1490 1491 1492 1493 1494 1494 1494 1495 1496 1496 1497 1496 1496 1496 1496 1496 1496 1496 1496 1497 1497 1497
1477 1477 1477 1478 1479 1479 1480 1482 1483 1484 1484 1485 1485 1486 1486 1487 1487 1488 1489 1491 1491 1492 1491 1492 1493 1494 1495 1495 1494 1494 1494 1493 1493 1493 1493 1493 1493 1493
1470 1470 1470 1470 1472 1473 1475 1477 1478 1479 1480 1481 1481 1482 1483 1483 1483 1484 1485 1487 1488 1489 1489 1489 1490 1491 1492 1492 1492 1492 1492 1491 1491 1490 1490 1489 1489 1490
1462 1463 1464 1464 1465 1467 1469 1470 1472 1474 1475 1476 1477 1478 1479 1479 1480 1480 1481 1482 1484 1485 1485 1486 1487 1488 1489 1489 1490 1489 1489 1488 1488 1487 1487 1486 1486 1485
1454 1455 1456 1457 1458 1460 1462 1464 1466 1468 1469 1471 1472 1473 1474 1475 1476 1476 1477 1478 1479 1480 1481 1482 1483 1484 1485 1486 1486 1486 1486 1485 1485 1484 1484 1483 1483 1482
1444 1446 1448 1450 1451 1453 1454 1457 1459 1461 1463 1465 1466 1467 1469 1470 1471 1472 1474 1475 1476 1477 1477 1478 1479 1480 1481 1482 1482 1482 1482 1482 1481 1481 1480 1480 1479 1478
1436 1437 1439 1440 1442 1445 1447 1449 1451 1453 1455 1458 1460 1461 1463 1464 1466 1468 1469 1471 1473 1474 1474 1475 1476 1476 1477 1478 1478 1479 1479 1478 1478 1477 1477 1476 1475 1475
1428 1428 1429 1431 1433 1435 1438 1441 1443 1445 1448 1450 1453 1455 1457 1459 1461 1463 1465 1467 1469 1470 1471 1471 1472 1473 1474 1474 1475 1475 1475 1475 1474 1474 1473 1472 1472 1471
1417 1418 1419 1421 1424 1426 1429 1432 1434 1437 1440 1443 1445 1448 1451 1453 1455 1458 1460 1462 1464 1466 1467 1467 1468 1470 1471 1472 1470 1471 1471 1471 1470 1470 1469 1468 1467 1466
1406 1407 1409 1412 1414 1417 1420 1422 1426 1429 1432 1435 1438 1441 1444 1446 1449 1452 1454 1457 1459 1461 1462 1463 1464 1466 1467 1468 1468 1467 1467 1467 1466 1466 1465 1464 1462 1461
1395 1397 1399 1402 1405 1407 1411 1414 1417 1419 1423 1426 1429 1433 1436 1440 1443 1446 1448 1451 1453 1455 1457 1459 1459 1461 1461 1463 1464 1463 1463 1462 1462 1462 1461 1460 1458 1457
1387 1387 1389 1392 1395 1398 1401 1404 1408 1411 1414 1418 1421 1425 1429 1432 1436 1439 1442 1445 1447 1450 1452 1454 1454 1456 1457 1459 1460 1460 1459 1459 1458 1457 1456 1456 1455 1453
1377 1378 1380 1382 1385 1388 1391 1394 1398 1402 1405 1409 1413 1417 1421 1425 1429 1432 1436 1439 1442 1444 1446 1448 1450 1451 1453 1454 1455 1455 1455 1455 1454 1453 1452 1451 1450 1448